Temp
67 66 67 67 67 67 67 67 69 69 69 70 70 70 70 70 70 69 68 68 68 68
67 67 68 68 68 68 68 69 70 70 69 70 69 69 68 68 70 69 68 69 69 68
67 67 67 68 68 68 69 69 70 70 69 69 69 69 69 68 68 68 67 67 67 67
67 68 67 67 68 68 69 69 68 69 69 68 68 68 68 68 68 67 67 67 67 67
67 68 68 68 68 69 68 68 68 69 68 68 67 68 68 67 67 67 66 66 66 66
68 68 67 68 68 68 68 67 68 68 68 67 66 65 65 65 64 63 63 63 63 63
70 71 69 68 68 68 68 66 66 67 67 67 66 65 65 64 63 62 61 62 62 62
70 71 72 69 68 68 68 66 66 66 65 65 65 65 63 63 62 61 60 60 60 61
69 70 71 68 68 67 67 66 66 65 64 63 64 62 63 64 62 61 60 57 56 57
72 70 69 68 66 66 64 64 62 61 58 56 55 58 61 63 62 62 60 59 58 61
72 71 67 66 65 63 62 62 61 59 56 53 54 55 59 61 58 55 55 56 56 55
66 66 65 64 62 61 59 56 55 53 56 55 53 53 58 60 58 55 52 53 54 54
61 62 60 61 60 59 57 54 53 51 50 52 52 50 54 60 60 56 54 54 53 53
56 55 54 54 53 53 53 51 49 49 49 49 50 49 50 53 58 55 52 51 50 50
MSLP
1012.62 1012.40 1012.21 1011.92 1011.56 1011.34 1011.39 1011.51 1011.61 1011.83 1012.10 1012.48 1012.82 1013.11 1013.33 1013.58 1013.92 1014.19 1014.77 1015.37 1015.94 1016.64
1012.62 1012.43 1012.43 1012.14 1011.59 1011.41 1011.33 1011.36 1011.47 1011.69 1011.96 1012.32 1012.56 1012.90 1013.08 1013.25 1013.66 1014.07 1014.81 1015.27 1015.81 1016.54
1012.68 1012.73 1012.65 1012.37 1012.19 1011.89 1011.60 1011.52 1011.48 1011.56 1011.72 1012.07 1012.38 1012.55 1012.90 1013.27 1013.72 1014.30 1014.80 1015.38 1015.97 1016.55
1012.79 1012.77 1012.78 1012.70 1012.50 1012.21 1012.09 1012.03 1011.99 1011.84 1011.92 1012.00 1012.17 1012.47 1013.00 1013.41 1013.96 1014.70 1015.28 1015.70 1015.97 1016.34
1012.74 1012.70 1012.78 1012.85 1012.76 1012.68 1012.61 1012.55 1012.54 1012.54 1012.55 1012.61 1012.73 1012.90 1013.42 1014.00 1014.57 1015.03 1015.57 1015.87 1016.11 1016.41
1012.65 1012.75 1012.95 1013.01 1013.16 1013.16 1013.13 1013.22 1013.18 1013.14 1013.37 1013.60 1013.81 1013.85 1014.32 1014.79 1015.31 1015.81 1016.19 1016.35 1016.46 1016.77
1012.45 1012.52 1012.85 1013.13 1013.33 1013.51 1013.72 1013.78 1013.90 1014.02 1014.17 1014.40 1014.73 1015.01 1015.26 1015.48 1015.96 1016.37 1016.71 1016.85 1016.98 1017.10
1012.27 1012.43 1012.72 1013.16 1013.40 1013.76 1014.05 1014.37 1014.58 1014.76 1014.93 1015.16 1015.41 1015.68 1015.88 1016.10 1016.42 1016.67 1016.85 1017.03 1017.14 1017.34
1012.34 1012.43 1012.85 1013.34 1013.68 1014.04 1014.45 1014.90 1015.14 1015.42 1015.71 1015.98 1016.24 1016.35 1016.38 1016.54 1016.91 1017.26 1017.53 1017.88 1018.15 1018.28
1012.43 1012.73 1013.10 1013.66 1014.20 1014.72 1015.28 1015.55 1016.05 1016.47 1016.74 1017.16 1017.15 1016.93 1016.98 1017.10 1017.43 1017.77 1018.06 1018.33 1018.56 1018.59
1012.45 1013.00 1013.73 1014.41 1014.99 1015.47 1015.95 1016.36 1016.83 1017.36 1017.68 1017.75 1017.80 1017.29 1017.39 1017.73 1018.14 1018.59 1018.90 1019.05 1019.15 1019.16
1012.92 1013.59 1014.17 1015.02 1015.88 1016.45 1016.74 1017.33 1017.93 1018.32 1018.33 1018.30 1018.37 1017.98 1017.98 1018.22 1018.77 1019.37 1019.96 1020.09 1019.94 1019.72
1013.70 1014.40 1015.06 1015.83 1016.48 1017.16 1017.57 1018.14 1018.64 1019.20 1019.51 1019.33 1019.09 1018.72 1018.59 1018.75 1019.19 1019.75 1020.32 1020.75 1020.86 1020.70
1015.03 1015.59 1016.25 1016.90 1017.68 1018.15 1018.51 1018.98 1019.59 1020.03 1020.40 1020.35 1020.05 1019.89 1019.39 1019.49 1019.97 1020.49 1021.17 1021.69 1021.94 1021.85
Wind_Speed
4 3 4 4 3 1 1 2 3 5 5 6 6 5 6 4 4 6 6 8 5 3
4 6 6 7 4 3 3 0 3 5 5 5 5 7 7 4 5 5 6 7 8 5
5 5 5 4 7 6 5 6 3 3 5 5 5 6 6 4 5 7 3 4 6 4
4 3 3 4 5 5 5 6 7 6 5 3 3 5 6 4 6 6 5 4 5 3
4 4 2 3 5 5 6 7 5 6 8 9 9 8 10 9 8 7 7 6 8 6
5 4 3 3 4 5 6 7 8 6 8 9 8 10 10 11 10 10 9 7 9 6
5 4 5 4 4 5 5 6 7 8 8 9 8 9 8 10 9 8 7 7 7 7
4 4 6 6 5 6 6 6 6 7 7 7 7 5 7 8 7 7 7 7 7 7
6 7 7 6 6 6 6 6 6 7 8 9 6 6 10 8 6 6 6 6 6 6
7 6 7 7 10 12 11 11 11 10 10 9 7 7 7 11 6 7 5 5 4 4
8 6 10 12 11 11 10 11 10 10 9 7 7 9 7 17 11 11 11 9 7 5
11 12 13 13 11 9 12 11 11 9 10 10 10 11 15 14 11 11 10 9 10 6
12 13 13 12 10 11 11 11 9 10 10 14 11 17 9 12 8 10 8 9 10 19
12 13 12 13 10 10 11 11 11 11 9 11 11 13 18 16 10 8 8 7 7 7
Wind_Direction
37 11 332 310 313 33 143 170 184 185 184 181 193 190 191 175 180 166 154 140 137 156
48 32 8 344 360 60 56 119 173 182 186 188 204 200 202 177 162 156 153 160 157 181
84 53 28 19 9 33 33 40 31 184 196 191 211 197 143 133 134 142 128 119 134 152
111 85 55 39 27 31 43 46 36 37 57 79 158 143 129 140 118 121 138 158 151 132
138 120 105 37 52 45 39 31 54 55 56 59 54 83 89 87 84 90 89 88 92 83
174 169 142 94 63 56 62 48 41 66 72 65 64 76 85 93 90 83 82 79 79 71
182 188 161 142 108 87 76 70 53 59 66 74 75 77 85 97 96 93 90 83 77 66
168 137 98 112 126 107 97 85 75 75 77 82 76 85 90 87 88 89 80 67 70 67
131 122 120 114 108 106 96 94 81 61 55 56 62 64 98 100 92 84 88 87 71 65
141 129 122 101 83 80 82 79 68 63 60 47 22 15 103 107 88 79 88 92 97 102
144 134 98 90 89 89 83 75 70 63 56 51 27 18 104 83 80 68 55 49 55 57
99 94 102 103 96 90 89 81 70 55 48 47 34 22 99 98 89 79 66 54 42 38
98 97 92 98 101 92 89 88 82 66 43 43 46 30 75 103 98 90 80 55 43 46
84 89 86 84 78 88 87 82 73 72 53 46 46 40 58 67 83 85 72 54 41 36